EW7806 Weather Reports


Display with metric or nautical units.
time (UTC)temp
F
wind
direction
speed
MPH
gust
MPH
rain 1hr
in
rain 24hr
in
rain mn
in
humidity
%
barometer
mb
20210515122211 54 254 1.0 3.0 0.00 0.04 0.04 73 1002.3
20210515121707 54 258 0.0 4.0 0.00 0.04 0.04 73 1002.3
20210515121207 54 259 0.0 4.0 0.00 0.04 0.04 72 1002.3
20210515120704 55 262 1.0 6.0 0.00 0.04 0.04 73 1002.3
20210515120204 54 262 1.0 6.0 0.00 0.04 0.04 73 1002.3
20210515115704 54 273 1.0 4.0 0.00 0.04 0.04 72 1002.4
20210515115150 55 251 1.0 4.0 0.00 0.04 0.04 72 1002.4
20210515114655 55 269 1.0 4.0 0.00 0.04 0.04 72 1002.5
20210515114149 55 262 1.0 6.0 0.00 0.04 0.04 72 1002.4
20210515113653 56 180 1.0 6.0 0.00 0.04 0.04 71 1002.5
20210515113141 56 342 1.0 5.0 0.00 0.04 0.04 70 1002.6
20210515112644 57 79 0.0 2.0 0.00 0.04 0.04 70 1002.6
20210515112138 57 206 0.0 4.0 0.00 0.04 0.04 69 1002.7
20210515111638 58 84 0.0 4.0 0.00 0.04 0.04 69 1002.8
20210515111136 58 75 0.0 2.0 0.00 0.04 0.04 70 1002.9
20210515110634 58 73 0.0 3.0 0.00 0.04 0.04 70 1002.9
20210515110141 57 86 1.0 3.0 0.00 0.04 0.04 72 1003.0
20210515105617 56 45 1.0 4.0 0.00 0.04 0.04 72 1003.0
20210515105115 56 41 2.0 7.0 0.01 0.04 0.04 72 1003.1
20210515104611 56 27 2.0 7.0 0.01 0.04 0.04 72 1003.2
20210515104105 56 36 1.0 5.0 0.01 0.04 0.04 73 1003.3
20210515103604 55 31 1.0 5.0 0.01 0.04 0.04 74 1003.4
20210515103100 55 31 1.0 5.0 0.01 0.04 0.04 75 1003.4
20210515102549 54 29 1.0 3.0 0.01 0.04 0.04 76 1003.4
20210515102049 53 34 1.0 4.0 0.01 0.04 0.04 78 1003.5
20210515101544 52 37 1.0 4.0 0.01 0.04 0.04 79 1003.5
20210515101037 51 39 0.0 2.0 0.01 0.04 0.04 79 1003.5
20210515100539 51 37 0.0 2.0 0.01 0.04 0.04 80 1003.7
20210515100057 51 36 0.0 1.0 0.01 0.04 0.04 80 1003.7
20210515095530 51 38 0.0 3.0 0.01 0.04 0.04 81 1003.8
20210515095032 50 39 1.0 3.0 0.00 0.03 0.03 81 1003.8
20210515094528 50 34 0.0 3.0 0.00 0.03 0.03 81 1003.8
20210515094019 50 33 0.0 1.0 0.00 0.03 0.03 82 1003.8
20210515093516 50 33 0.0 1.0 0.00 0.03 0.03 82 1003.9
20210515092956 49 32 0.0 2.0 0.00 0.03 0.03 82 1004.0
20210515092456 49 32 0.0 2.0 0.00 0.03 0.03 82 1004.1
20210515091936 49 254 0.0 1.0 0.00 0.03 0.03 82 1004.2
20210515091437 49 254 0.0 0.0 0.00 0.03 0.03 83 1004.1
20210515090942 49 254 0.0 1.0 0.00 0.03 0.03 83 1004.1
20210515090439 49 254 0.0 1.0 0.00 0.03 0.03 83 1004.1
20210515085942 49 254 0.0 1.0 0.00 0.03 0.03 83 1004.2
20210515085432 49 254 0.0 1.0 0.00 0.03 0.03 83 1004.2
20210515084925 49 254 0.0 0.0 0.00 0.03 0.03 83 1004.2
20210515084421 49 254 0.0 0.0 0.00 0.03 0.03 83 1004.2
20210515083914 49 254 0.0 1.0 0.00 0.03 0.03 83 1004.3
20210515083411 49 254 0.0 1.0 0.01 0.03 0.03 83 1004.3
20210515082909 48 254 0.0 1.0 0.01 0.03 0.03 83 1004.3
20210515082357 48 254 0.0 1.0 0.01 0.03 0.03 83 1004.3
20210515081836 48 254 0.0 0.0 0.01 0.03 0.03 83 1004.4
20210515081343 48 254 0.0 0.0 0.01 0.03 0.03 83 1004.4
20210515080838 48 254 0.0 0.0 0.01 0.03 0.03 83 1004.4
20210515080336 48 254 0.0 1.0 0.01 0.03 0.03 83 1004.4
20210515075840 48 254 0.0 1.0 0.01 0.03 0.03 83 1004.3
20210515075336 48 254 0.0 1.0 0.02 0.03 0.03 83 1004.4
20210515074838 47 254 0.0 1.0 0.02 0.03 0.03 83 1004.4
20210515074333 47 254 0.0 1.0 0.02 0.03 0.03 83 1004.4
20210515073823 47 254 0.0 2.0 0.02 0.02 0.03 82 1004.4
20210515073310 47 254 0.0 2.0 0.01 0.02 0.02 82 1004.5
20210515072758 47 263 0.0 1.0 0.01 0.02 0.02 82 1004.5
20210515072246 47 263 0.0 1.0 0.01 0.02 0.02 82 1004.6
20210515071746 47 263 0.0 2.0 0.01 0.02 0.02 82 1004.6
20210515071241 47 274 0.0 2.0 0.02 0.02 0.02 82 1004.7
20210515070742 47 269 0.0 1.0 0.02 0.02 0.02 82 1004.7
20210515070240 47 269 0.0 1.0 0.02 0.02 0.02 82 1004.7
20210515065738 47 269 0.0 1.0 0.02 0.02 0.02 82 1004.7
20210515065237 47 269 0.0 1.0 0.01 0.01 0.01 82 1004.8
20210515064737 47 269 0.0 2.0 0.01 0.01 0.01 81 1004.8
20210515064219 47 269 0.0 2.0 0.01 0.01 0.01 81 1004.9
20210515063713 47 269 0.0 1.0 0.01 0.01 0.01 82 1004.8
20210515063210 47 269 0.0 1.0 0.01 0.01 0.01 82 1004.8
20210515062708 47 269 0.0 1.0 0.01 0.01 0.01 82 1004.9
20210515062203 47 269 0.0 0.0 0.01 0.01 0.01 82 1004.8
20210515061658 47 269 0.0 0.0 0.01 0.01 0.01 82 1004.8
20210515061141 47 269 0.0 1.0 0.00 0.00 0.00 81 1004.9
20210515060642 47 269 0.0 1.0 0.00 0.00 0.00 81 1004.9
20210515060137 47 269 0.0 1.0 0.00 0.00 0.00 81 1004.9
20210515055642 47 269 0.0 1.0 0.00 0.00 0.00 81 1004.9
20210515055136 47 269 0.0 1.0 0.00 0.00 0.00 81 1005.0
20210515054637 47 269 0.0 2.0 0.00 0.00 0.00 81 1005.0
20210515054137 47 269 0.0 2.0 0.00 0.00 0.00 80 1005.1
20210515053638 47 269 0.0 2.0 0.00 0.00 0.00 80 1005.1
20210515053134 47 265 1.0 2.0 0.00 0.00 0.00 80 1005.2
20210515052635 47 253 0.0 2.0 0.00 0.00 0.00 80 1005.1
20210515052130 47 252 0.0 2.0 0.00 0.00 0.00 80 1005.1
20210515051624 47 251 0.0 1.0 0.00 0.00 0.00 80 1005.2
20210515051118 47 250 0.0 1.0 0.00 0.00 0.00 80 1005.1
20210515050616 47 250 0.0 1.0 0.00 0.00 0.00 80 1005.1
20210515050120 47 255 0.0 1.0 0.00 0.00 0.00 79 1005.1
20210515045609 47 256 0.0 2.0 0.00 0.00 0.00 79 1005.1
20210515045112 47 256 0.0 2.0 0.00 0.00 0.00 79 1005.1
20210515044611 47 256 0.0 1.0 0.00 0.00 0.00 79 1005.1
20210515044103 47 256 0.0 1.0 0.00 0.00 0.00 79 1005.1
20210515043552 47 256 0.0 1.0 0.00 0.00 0.00 79 1005.2
20210515043054 48 256 0.0 1.0 0.00 0.00 0.00 78 1005.2
20210515042545 48 256 0.0 1.0 0.00 0.00 0.00 78 1005.3
20210515042042 48 256 0.0 3.0 0.00 0.00 0.00 78 1005.2
20210515041539 48 256 1.0 3.0 0.00 0.00 0.00 77 1005.3
20210515041043 48 289 1.0 3.0 0.00 0.00 0.00 77 1005.3
20210515040538 48 269 0.0 3.0 0.00 0.00 0.00 76 1005.4
20210515040036 48 260 0.0 1.0 0.00 0.00 0.00 76 1005.4
20210515035519 48 259 0.0 1.0 0.00 0.00 0.00 76 1005.4
20210515035020 49 259 0.0 1.0 0.00 0.00 0.00 76 1005.4
20210515034521 49 259 0.0 1.0 0.00 0.00 0.00 76 1005.3
20210515034014 49 259 0.0 1.0 0.00 0.00 0.00 76 1005.3
20210515033500 49 260 0.0 0.0 0.00 0.00 0.00 76 1005.4
20210515032947 48 260 0.0 1.0 0.00 0.00 0.00 76 1005.4
20210515032439 48 260 0.0 1.0 0.00 0.00 0.00 76 1005.4
20210515031942 48 260 0.0 1.0 0.00 0.00 0.00 76 1005.5
20210515031438 48 260 0.0 2.0 0.00 0.00 0.00 76 1005.5
20210515030938 48 260 1.0 3.0 0.00 0.00 0.00 76 1005.6
20210515030420 49 258 0.0 3.0 0.00 0.00 0.00 76 1005.6
20210515025922 49 287 0.0 1.0 0.00 0.00 0.00 76 1005.7
20210515025409 49 287 0.0 2.0 0.00 0.00 0.00 76 1005.8
20210515024909 49 300 0.0 1.0 0.00 0.00 0.00 76 1005.9
20210515024409 49 300 0.0 2.0 0.00 0.00 0.00 76 1006.0
20210515023912 49 300 0.0 2.0 0.00 0.00 0.00 76 1006.0
20210515023406 49 355 0.0 1.0 0.00 0.00 0.00 76 1006.1
20210515022910 49 355 0.0 2.0 0.00 0.00 0.00 76 1006.1
20210515022409 49 355 0.0 2.0 0.00 0.00 0.00 76 1006.2
20210515021855 49 356 0.0 1.0 0.00 0.00 0.00 76 1006.3
20210515021401 49 356 0.0 2.0 0.00 0.00 0.00 76 1006.3
20210515020855 49 356 0.0 2.0 0.00 0.00 0.00 76 1006.2
20210515020340 49 25 0.0 0.0 0.00 0.00 0.00 76 1006.3
20210515015843 49 26 0.0 0.0 0.00 0.00 0.00 76 1006.3
20210515015340 49 26 0.0 0.0 0.00 0.00 0.00 76 1006.3
20210515014842 49 25 0.0 0.0 0.00 0.00 0.00 76 1006.3
20210515014344 49 26 0.0 0.0 0.00 0.00 0.00 76 1006.4
20210515013837 49 26 0.0 0.0 0.00 0.00 0.00 77 1006.3
20210515013341 49 26 0.0 0.0 0.00 0.00 0.00 76 1006.4
20210515012840 49 26 0.0 1.0 0.00 0.00 0.00 76 1006.5
20210515012337 49 26 0.0 1.0 0.00 0.00 0.00 76 1006.4
20210515011835 49 24 0.0 0.0 0.00 0.00 0.00 76 1006.5
20210515011338 49 24 0.0 0.0 0.00 0.00 0.00 76 1006.5
20210515010833 49 25 0.0 0.0 0.00 0.00 0.00 76 1006.5
20210515010329 49 25 0.0 0.0 0.00 0.00 0.00 76 1006.6
20210515005823 49 24 0.0 0.0 0.00 0.00 0.00 76 1006.7
20210515005351 49 25 0.0 0.0 0.00 0.00 0.00 76 1006.8
20210515004805 49 25 0.0 0.0 0.00 0.00 0.00 76 1006.8
20210515004312 49 25 0.0 1.0 0.00 0.00 0.00 76 1006.8
20210515003803 49 24 0.0 1.0 0.00 0.00 0.00 76 1006.9
20210515003259 49 25 0.0 0.0 0.00 0.00 0.00 76 1006.9
20210515002803 49 25 0.0 1.0 0.00 0.00 0.00 76 1006.9
20210515002259 49 24 0.0 1.0 0.00 0.00 0.00 76 1007.0
20210515001801 49 24 0.0 0.0 0.00 0.00 0.00 76 1007.1
20210515001258 49 24 0.0 0.0 0.00 0.00 0.00 76 1007.1
20210515000754 49 24 0.0 1.0 0.00 0.00 0.00 76 1007.1
20210515000249 49 25 0.0 1.0 0.00 0.00 0.00 76 1007.1
20210514235751 49 34 0.0 1.0 0.00 0.00 0.00 76 1007.1
20210514235241 49 34 0.0 0.0 0.00 0.00 0.00 76 1007.0
20210514234745 49 34 0.0 0.0 0.00 0.00 0.00 76 1007.0
20210514234240 49 34 0.0 0.0 0.00 0.00 0.00 76 1007.2
20210514233740 49 34 0.0 0.0 0.00 0.00 0.00 76 1007.2
20210514233225 49 34 0.0 1.0 0.00 0.00 0.00 76 1007.3
20210514232711 49 34 0.0 1.0 0.00 0.00 0.00 76 1007.4
20210514232206 49 34 0.0 1.0 0.00 0.00 0.00 75 1007.4
20210514231711 49 36 0.0 0.0 0.00 0.00 0.00 76 1007.5
20210514231210 49 36 0.0 1.0 0.00 0.00 0.00 75 1007.5
20210514230707 49 36 0.0 2.0 0.00 0.00 0.00 75 1007.5
20210514230220 49 36 0.0 2.0 0.00 0.00 0.00 75 1007.5
20210514225712 49 34 0.0 0.0 0.00 0.00 0.00 76 1007.6
20210514225209 49 34 0.0 0.0 0.00 0.00 0.00 76 1007.6
20210514224645 49 34 0.0 1.0 0.00 0.00 0.00 76 1007.6
20210514224139 49 34 0.0 1.0 0.00 0.00 0.00 76 1007.6
20210514223642 49 34 0.0 1.0 0.00 0.00 0.00 76 1007.6
20210514223127 49 34 0.0 1.0 0.00 0.00 0.00 75 1007.7
20210514222615 49 39 0.0 1.0 0.00 0.00 0.00 75 1007.7
20210514222116 49 271 0.0 1.0 0.00 0.00 0.00 75 1007.7
20210514221622 49 271 0.0 1.0 0.00 0.00 0.00 75 1007.8
20210514221111 49 271 0.0 1.0 0.00 0.00 0.00 75 1007.9
20210514220612 49 271 0.0 1.0 0.00 0.00 0.00 75 1007.9
20210514220114 49 271 0.0 1.0 0.00 0.00 0.00 75 1008.0
20210514215615 49 271 0.0 1.0 0.00 0.00 0.00 75 1007.9
20210514215117 49 271 0.0 1.0 0.00 0.00 0.00 75 1008.0
20210514214600 49 271 0.0 1.0 0.00 0.00 0.00 75 1008.1
20210514214057 49 271 0.0 1.0 0.00 0.00 0.00 75 1008.1
20210514213546 49 271 0.0 1.0 0.00 0.00 0.00 75 1008.2
20210514213042 49 271 0.0 2.0 0.00 0.00 0.00 75 1008.3
20210514212536 49 271 0.0 2.0 0.00 0.00 0.00 75 1008.2
20210514212030 49 131 0.0 1.0 0.00 0.00 0.00 76 1008.2
20210514211517 49 146 0.0 1.0 0.00 0.00 0.00 75 1008.2
20210514211004 49 167 0.0 2.0 0.00 0.00 0.00 75 1008.2
20210514210507 49 179 0.0 2.0 0.00 0.00 0.00 75 1008.2
20210514210019 49 167 0.0 1.0 0.00 0.00 0.00 75 1008.2
20210514205500 49 167 0.0 2.0 0.00 0.00 0.00 75 1008.2
20210514204957 49 167 0.0 2.0 0.00 0.00 0.00 75 1008.2
20210514204459 49 167 0.0 1.0 0.00 0.00 0.00 75 1008.3
20210514203952 49 120 0.0 1.0 0.00 0.00 0.00 75 1008.3
20210514203449 49 203 0.0 1.0 0.00 0.00 0.00 75 1008.4
20210514202942 50 203 0.0 1.0 0.00 0.00 0.00 75 1008.4
20210514202444 50 96 0.0 1.0 0.00 0.00 0.00 75 1008.3
20210514201939 50 96 0.0 1.0 0.00 0.00 0.00 75 1008.4
20210514201441 50 96 0.0 1.0 0.00 0.00 0.00 75 1008.4
20210514200942 50 152 0.0 1.0 0.00 0.00 0.00 75 1008.4
20210514200433 50 142 0.0 1.0 0.00 0.00 0.00 75 1008.4
20210514195930 50 236 0.0 3.0 0.00 0.00 0.00 75 1008.4
20210514195411 50 257 0.0 3.0 0.00 0.00 0.00 75 1008.2
20210514194912 50 131 0.0 2.0 0.00 0.00 0.00 75 1008.2
20210514194411 50 269 0.0 1.0 0.00 0.00 0.00 75 1008.2
20210514193913 50 269 0.0 1.0 0.00 0.00 0.00 75 1008.2
20210514193403 50 269 0.0 2.0 0.00 0.00 0.00 75 1008.1
20210514192854 50 269 0.0 2.0 0.00 0.00 0.00 74 1008.2
20210514192355 50 335 0.0 3.0 0.00 0.00 0.00 74 1008.1
20210514191855 50 156 0.0 3.0 0.00 0.00 0.00 74 1008.1
20210514191353 50 254 0.0 4.0 0.00 0.00 0.00 74 1008.0
20210514190843 50 255 0.0 4.0 0.00 0.00 0.00 74 1008.1
20210514190339 50 250 0.0 3.0 0.00 0.00 0.00 74 1008.0
20210514185838 50 264 0.0 2.0 0.00 0.00 0.00 74 1008.1
20210514185338 50 264 1.0 4.0 0.00 0.00 0.00 74 1008.0
20210514184838 51 167 1.0 4.0 0.00 0.00 0.00 74 1008.0
20210514184324 51 206 1.0 5.0 0.00 0.00 0.00 73 1008.0
20210514183831 51 250 0.0 5.0 0.00 0.00 0.00 73 1008.0
20210514183323 51 276 0.0 2.0 0.00 0.00 0.00 73 1007.9
20210514182822 51 276 1.0 5.0 0.00 0.00 0.00 73 1007.9
20210514182313 51 203 1.0 5.0 0.00 0.00 0.00 73 1008.0
20210514181809 52 197 0.0 3.0 0.00 0.00 0.00 73 1007.9
20210514181313 52 86 0.0 3.0 0.00 0.00 0.00 73 1007.9
20210514180808 52 271 0.0 1.0 0.00 0.00 0.00 73 1007.9
20210514180308 52 271 1.0 4.0 0.00 0.00 0.00 73 1007.9
20210514175816 52 260 1.0 4.0 0.00 0.00 0.00 72 1007.9
20210514175311 53 213 0.0 2.0 0.00 0.00 0.00 72 1007.9
20210514174814 53 273 0.0 3.0 0.00 0.00 0.00 72 1007.9
20210514174314 53 244 0.0 3.0 0.00 0.00 0.00 72 1007.9
20210514173810 53 256 0.0 2.0 0.00 0.00 0.00 72 1008.0
20210514173304 53 108 1.0 4.0 0.00 0.00 0.00 72 1008.0
20210514172814 53 212 1.0 4.0 0.00 0.00 0.00 71 1008.0
20210514172309 54 84 0.0 3.0 0.00 0.00 0.00 71 1007.9
20210514171808 54 184 0.0 2.0 0.00 0.00 0.00 72 1007.9
20210514171309 53 120 0.0 2.0 0.00 0.00 0.00 72 1008.0
20210514170802 53 69 0.0 2.0 0.00 0.00 0.00 72 1008.0
20210514170315 53 86 0.0 2.0 0.00 0.00 0.00 72 1008.1
20210514165745 53 269 1.0 3.0 0.00 0.00 0.00 71 1008.2
20210514165239 53 269 1.0 5.0 0.00 0.00 0.00 71 1008.2
20210514164738 54 272 1.0 5.0 0.00 0.00 0.00 71 1008.2
20210514164237 54 255 0.0 4.0 0.00 0.00 0.00 70 1008.2
20210514163736 54 63 1.0 4.0 0.00 0.00 0.00 71 1008.2
20210514163242 54 33 1.0 3.0 0.00 0.00 0.00 71 1008.1
20210514162733 54 288 1.0 5.0 0.00 0.00 0.00 71 1008.1
20210514162227 54 195 1.0 5.0 0.00 0.00 0.00 71 1008.1
20210514161728 54 159 1.0 3.0 0.00 0.00 0.00 71 1008.2
20210514161226 55 272 1.0 4.0 0.00 0.00 0.00 71 1008.2
20210514160726 54 179 1.0 4.0 0.00 0.00 0.00 71 1008.2
20210514160222 55 83 1.0 4.0 0.00 0.00 0.00 71 1008.1
20210514155712 55 207 1.0 6.0 0.00 0.00 0.00 70 1008.2
20210514155208 55 89 1.0 6.0 0.00 0.00 0.00 71 1008.2
20210514154708 55 172 1.0 2.0 0.00 0.00 0.00 71 1008.1
20210514154217 55 139 0.0 5.0 0.00 0.00 0.00 71 1008.2
20210514153702 55 172 1.0 5.0 0.00 0.00 0.00 71 1008.3
20210514153211 54 261 1.0 5.0 0.00 0.00 0.00 71 1008.3
20210514152702 54 273 2.0 7.0 0.00 0.00 0.00 71 1008.4
20210514152201 54 269 1.0 7.0 0.00 0.00 0.00 71 1008.5
20210514151703 54 276 0.0 4.0 0.00 0.00 0.00 71 1008.5
20210514151146 54 234 0.0 4.0 0.00 0.00 0.00 70 1008.4
20210514150638 54 281 0.0 3.0 0.00 0.00 0.00 71 1008.4
20210514150139 54 169 1.0 5.0 0.00 0.00 0.00 71 1008.4
20210514145638 53 261 1.0 5.0 0.00 0.00 0.00 71 1008.4
20210514145143 54 41 1.0 4.0 0.00 0.00 0.00 71 1008.4
20210514144638 53 275 1.0 5.0 0.00 0.00 0.00 70 1008.5
20210514144129 54 224 1.0 5.0 0.00 0.00 0.00 71 1008.5
20210514143631 54 259 1.0 5.0 0.00 0.00 0.00 71 1008.5
20210514143124 54 119 2.0 5.0 0.00 0.00 0.00 71 1008.5
20210514142619 54 224 1.0 6.0 0.00 0.00 0.00 71 1008.5
20210514142111 54 194 1.0 6.0 0.00 0.00 0.00 71 1008.6
20210514141611 54 157 1.0 4.0 0.00 0.00 0.00 71 1008.6
20210514141110 54 84 2.0 6.0 0.00 0.00 0.00 71 1008.7
20210514140614 54 193 2.0 6.0 0.00 0.00 0.00 71 1008.7
20210514140122 54 179 1.0 5.0 0.00 0.00 0.00 71 1008.6
20210514135544 53 257 1.0 5.0 0.00 0.00 0.00 71 1008.7
20210514135040 53 143 0.0 4.0 0.00 0.00 0.00 73 1008.7
20210514134542 53 271 1.0 5.0 0.00 0.00 0.00 73 1008.8
20210514134038 52 273 1.0 5.0 0.00 0.00 0.00 72 1008.8
20210514133540 52 255 2.0 5.0 0.00 0.00 0.00 73 1008.8
20210514133041 52 259 1.0 5.0 0.00 0.00 0.00 73 1008.8
20210514132539 52 179 1.0 5.0 0.00 0.00 0.00 73 1008.8
20210514132040 52 269 1.0 5.0 0.00 0.00 0.00 73 1008.8
20210514131532 52 250 1.0 4.0 0.00 0.00 0.00 72 1008.8
20210514131023 52 153 0.0 3.0 0.00 0.00 0.00 73 1008.8
20210514130526 52 232 1.0 5.0 0.00 0.00 0.00 73 1008.8
20210514130049 51 273 2.0 5.0 0.00 0.00 0.00 73 1008.8
20210514125515 52 210 1.0 4.0 0.00 0.00 0.00 73 1008.8
20210514125023 52 244 1.0 5.0 0.00 0.00 0.00 73 1008.7
20210514124520 52 278 1.0 5.0 0.00 0.00 0.00 73 1008.7
20210514124002 52 212 1.0 3.0 0.00 0.00 0.00 73 1008.7
20210514123450 52 298 1.0 3.0 0.00 0.00 0.00 73 1008.6
20210514122944 52 187 1.0 3.0 0.00 0.00 0.00 74 1008.7